Hourly Data Report for September 04, 2017

All times are specified in Local Standard Time (LST). Add 1 hour to adjust for Daylight Saving Time where and when it is observed.

GJOA HAVEN A
NUNAVUT

68°38'08.000" N
95°51'01.000" W
46.90 m
2302337
71597
YHK

Download Data

Hourly Data (September 2017)
Hourly Data Report for September 4, 2017
Temp Definition
°C
Dew Point Temp Definition
°C
Rel Hum Definition
%
Wind Dir Definition
10's deg

Wind Spd Definition
km/h
Visibility Definition
km
Stn Press Definition
kPa
Hmdx Definition


Wind Chill Definition


Weather Definition


TIME
00:00 Legend Double Dagger 0.5 -0.4 94   0 16.1 101.09     LegendNANA
01:00 Legend Double Dagger 0.9 -0.1 93 34 8 16.1 101.11     LegendNANA
02:00 Legend Double Dagger 0.7 0.1 96 31 8 16.1 101.13     LegendNANA
03:00 Legend Double Dagger 0.6 0.2 97 29 11 16.1 101.15     LegendNANA
04:00 Legend Double Dagger 0.1 0.1 100 31 13 0.6 101.17     Fog
05:00 Legend Double Dagger -0.5 -0.5 100 31 11 0.6 101.17   -4 Freezing Fog
06:00 Legend Double Dagger -0.9 -0.9 100 27 9 0.4 101.20   -4 Freezing Fog
07:00 Legend Double Dagger -0.3 -0.3 100 28 9 1.2 101.20   -3 Fog
08:00 Legend Double Dagger 0.1 0.1 100 28 13 2.4 101.20     Fog
09:00 Legend Double Dagger 1.1 0.7 97 22 5 16.1 101.21     LegendNANA
10:00 Legend Double Dagger 1.7 0.4 91 24 15 16.1 101.20     LegendNANA
11:00 Legend Double Dagger 2.3 0.6 89 25 13 16.1 101.23     LegendNANA
12:00 Legend Double Dagger 3.4 1.0 84 26 15 16.1 101.22     LegendNANA
13:00 Legend Double Dagger 3.8 0.1 77 29 11 16.1 101.22     LegendNANA
14:00 Legend Double Dagger 4.7 -0.6 68 30 11 16.1 101.22     LegendNANA
15:00 Legend Double Dagger 4.8 -1.3 65 30 9 16.1 101.22     LegendNANA
16:00 Legend Double Dagger 4.9 -1.3 64 31 13 16.1 101.20     LegendNANA
17:00 Legend Double Dagger 3.8 1.4 84 4 15 16.1 101.19     LegendNANA
18:00 Legend Double Dagger 3.3 1.2 86 4 13 16.1 101.19     LegendNANA
19:00 Legend Double Dagger 2.7 0.8 87 4 8 16.1 101.16     LegendNANA
20:00 Legend Double Dagger 1.4 0.4 93 1 8 16.1 101.16     LegendNANA
21:00 Legend Double Dagger 1.7 0.7 93 35 8 16.1 101.14     LegendNANA
22:00 Legend Double Dagger 0.0 -0.3 98 1 11 16.1 101.11   -4 LegendNANA
23:00 Legend Double Dagger 0.4 0.1 98 36 9 16.1 101.10     LegendNANA

Notes on Data Quality.

Legend

  • E = Estimated
  • M = Missing
  • NA = Not Available
  • ‡ = Partner data that is not subject to review by the National Climate Archives
Date modified: